{"data":{"norad_id":53290,"intl_designator":"2022-086BA","name":"STARLINK-4149","alt_names":[],"object_type":"PAYLOAD","status":"ACTIVE","operator":null,"country":"US","launch_date":"2022-07-24","launch_site_code":"AFETR","launch_vehicle":null,"mission":null,"orbit_class":"UNKNOWN","rcs_meters":null,"size_class":null,"mass_kg":null,"dimensions":null,"purposes":["comms"],"wikipedia_slug":null,"has_3d_model":false,"image_url":null,"decayed_at":null,"tle_current":{"epoch":"2026-09-19T23:10:01.678080Z","epoch_age_seconds":121570,"freshness":"FRESH","line1":"1 53290U 22086BA  26262.96529720  .00013455  00000+0  79793-3 0  9990","line2":"2 53290  53.2159  30.8864 0001145 108.6702 251.4416 15.11657187230538","mean_motion":15.11657187,"eccentricity":0.0001145,"inclination_deg":53.2159,"raan_deg":30.8864,"arg_perigee_deg":108.6702,"mean_anomaly_deg":251.4416,"bstar":0.00079793,"rev_number":23053,"period_min":95.259693294469,"perigee_km":530.35463843557,"apogee_km":531.93686418562,"semimajor_km":6909.2827513106,"source":"CELESTRAK","updated_at":"2026-09-20T09:00:40.221447Z"}}}